[[{"header":{"parameterUnit":"m.s-1","parameterCategory":1,"la1":30.2991,"la2":30.254,"lo1":-89.0895,"lo2":-89.0444,"dx":0.0017,"dy":0.0017,"nx":28,"ny":28,"refTime":"2022-11-07T03:00:00:Z","depth":0,"parameterNumber":2,"parameterNumberName":"U-component_of_WINDS"},"data":[0,0,0,0,0,0,0,0,0,0,0,0,0,0,0,0,0,0,0,0,0,0,0,0,0,0,0,0,0,0,0,0,0,0,0,0,0,0,0,0,0,0,0,0,0,0,0,0,0,0,0,0,0,0,0,0,0,0,-0.8507,-0.8506,0,-0.8453,-0.8453,-0.8452,-0.8386,-0.8385,-0.8384,-0.8383,-0.8328,-0.8328,-0.8327,0,0,0,0,0,0,0,0,0,0,0,0,0,-0.8552,-0.8552,-0.8507,-0.8506,-0.8506,-0.8453,-0.8452,-0.8452,-0.8386,-0.8385,-0.8384,-0.8383,-0.8329,-0.8328,-0.8327,0,0,0,0,0,0,0,0,0,0,0,0,0,-0.8519,-0.8552,-0.8507,-0.8467,-0.8463,-0.8453,-0.8452,-0.8452,-0.8387,-0.8385,-0.8384,-0.8382,-0.8329,-0.8328,-0.8327,-0.8354,0,0,-0.8325,-0.8325,0,0,0,0,0,0,0,0,-0.8521,-0.8517,-0.8473,-0.8469,-0.8465,-0.8425,-0.8448,-0.8419,-0.8387,-0.8416,-0.8383,-0.8381,-0.8362,-0.8358,-0.8351,-0.8351,-0.8349,-0.8325,-0.8325,-0.8324,-0.8324,0,0,0,0,0,0,0,-0.8523,-0.8519,-0.8486,-0.8473,-0.8468,-0.8451,-0.8445,-0.8442,-0.8398,-0.8413,-0.8408,-0.8403,-0.8359,-0.8352,-0.835,-0.8348,-0.8325,-0.8324,-0.8324,-0.8324,-0.8365,-0.8366,0,0,0,0,0,0,-0.8532,-0.8522,-0.8487,-0.8484,-0.849,-0.8451,-0.8444,-0.8439,-0.8398,-0.839,-0.8404,-0.84,-0.8354,-0.8351,-0.8348,-0.8375,-0.8324,-0.8323,-0.8323,-0.8363,-0.8365,-0.8367,0,0,0,0,0,0,-0.8533,-0.8529,-0.849,-0.8501,-0.8495,-0.8452,-0.8447,-0.8439,-0.8432,-0.8391,-0.8383,-0.8405,-0.8353,-0.8349,-0.8352,-0.8372,-0.8323,-0.8322,-0.8361,-0.8364,-0.8366,-0.843,0,0,0,0,0,0,-0.8535,-0.853,-0.854,-0.8502,-0.8495,-0.8496,-0.8448,-0.8439,-0.8431,-0.8425,-0.839,-0.8383,-0.8352,-0.8354,-0.8352,-0.837,-0.8322,-0.8359,-0.8362,-0.8365,-0.8426,-0.8435,-0.8442,0,0,0,0,0,-0.8536,-0.8561,-0.8541,-0.8537,-0.8506,-0.8497,-0.8493,-0.8456,-0.8433,-0.8442,-0.8415,-0.8384,-0.837,-0.8355,-0.8352,-0.837,-0.8358,-0.8361,-0.8365,-0.8423,-0.8433,-0.8442,0,0,0,0,0,0,-0.8603,-0.8555,-0.8533,-0.8545,-0.8526,-0.8486,-0.8497,-0.8468,-0.8455,-0.845,-0.8405,-0.8397,-0.8406,-0.8388,-0.8372,-0.8393,-0.8359,-0.8362,-0.8404,-0.8414,-0.8421,-0.8426,-0.8321,0,0,0,0,0,-0.8619,-0.8615,-0.8574,-0.8589,-0.858,-0.854,-0.8535,-0.8508,-0.8486,-0.8477,-0.8451,-0.8431,-0.8421,-0.8416,-0.8406,-0.8423,-0.8414,-0.8434,-0.8442,-0.8448,-0.8452,-0.8459,-0.8467,-0.8378,-0.8378,-0.8378,0,0,-0.8652,-0.8625,-0.8626,-0.8602,-0.8583,-0.858,-0.8534,-0.8533,-0.853,-0.8477,-0.8479,-0.8459,-0.8433,-0.8443,-0.8446,-0.8429,-0.8474,-0.8453,-0.8458,-0.8458,-0.8463,-0.8471,-0.8479,-0.838,-0.838,-0.838,0,0,-0.8711,-0.8691,-0.8701,-0.8683,-0.8656,-0.8629,-0.8631,-0.8595,-0.858,-0.858,-0.854,-0.8536,-0.8522,-0.8504,-0.8494,-0.8545,-0.8515,-0.8542,-0.8583,-0.859,-0.8597,-0.8603,-0.8621,-0.8628,-0.8546,-0.8546,-0.8546,0,-0.8756,-0.875,-0.871,-0.8711,-0.8701,-0.8652,-0.8662,-0.8647,-0.8617,-0.8611,-0.8591,-0.8571,-0.855,-0.8556,-0.8568,-0.8561,-0.8562,-0.8547,-0.8599,-0.8605,-0.861,-0.8626,-0.8633,-0.8549,-0.8549,-0.8548,-0.8548,0,-0.8807,-0.8803,-0.8814,-0.8787,-0.8778,-0.8784,-0.8744,-0.8739,-0.8713,-0.8688,-0.8689,-0.8662,-0.8644,-0.8643,-0.8618,-0.8645,-0.8634,-0.8608,-0.8573,-0.8623,-0.8637,-0.8643,-0.8554,-0.8553,-0.8552,-0.8551,0,0,-0.8907,-0.8856,-0.8861,-0.8847,-0.8812,-0.8809,-0.8811,-0.8794,-0.8791,-0.8772,-0.8773,-0.8761,-0.8735,-0.8723,-0.8695,-0.8701,-0.8743,-0.8674,-0.8672,-0.8687,-0.8769,-0.879,-0.8798,-0.8722,-0.8723,-0.8724,-0.8771,0,-0.896,-0.8962,-0.8925,-0.8938,-0.8933,-0.8886,-0.8888,-0.8867,-0.8843,-0.8836,-0.8809,-0.8801,-0.8768,-0.8761,-0.8765,-0.8737,-0.8759,-0.8733,-0.8722,-0.8722,-0.8731,-0.8806,-0.8828,-0.8874,-0.8777,-0.8778,-0.8779,0,-0.9023,-0.9006,-0.9018,-0.8981,-0.8978,-0.8981,-0.8961,-0.8955,-0.8929,-0.8911,-0.8897,-0.8865,-0.8864,-0.8831,-0.8829,-0.8812,-0.8805,-0.8791,-0.8792,-0.879,-0.8754,-0.8806,-0.8888,-0.8895,-0.8787,-0.8787,-0.8786,0,-0.9095,-0.9076,-0.908,-0.907,-0.9027,-0.903,-0.9013,-0.8985,-0.8977,-0.8959,-0.8953,-0.8936,-0.8927,-0.8914,-0.8877,-0.8857,-0.8879,-0.8843,-0.8864,-0.8865,-0.8872,-0.8872,-0.8954,-0.8867,-0.8867,-0.8867,-0.8867,0,-0.9158,-0.9167,-0.9112,-0.9114,-0.9123,-0.9079,-0.9089,-0.9066,-0.9042,-0.9039,-0.8997,-0.8995,-0.8947,-0.8939,-0.891,-0.8913,-0.8909,-0.8894,-0.8886,-0.8898,-0.89,-0.8893,-0.8889,-0.8869,-0.8868,-0.8868,-0.8868,0,-0.924,-0.9204,-0.9205,-0.9164,-0.9154,-0.9162,-0.9127,-0.9127,-0.91,-0.9097,-0.9094,-0.9051,-0.904,-0.9002,-0.8981,-0.8962,-0.8973,-0.8958,-0.8982,-0.8977,-0.9,-0.8998,-0.9081,-0.9089,-0.8997,-0.8998,-0.8999,0,-0.9283,-0.9289,-0.9248,-0.9243,-0.9228,-0.922,-0.9211,-0.9168,-0.916,-0.913,-0.9134,-0.9119,-0.9105,-0.9089,-0.9056,-0.904,-0.9024,-0.9054,-0.9022,-0.9033,-0.9024,-0.9025,-0.9025,-0.9062,-0.9063,-0.9064,-0.9065,0,-0.9363,-0.9344,-0.9333,-0.9315,-0.9305,-0.9289,-0.927,-0.9268,-0.922,-0.9213,-0.9201,-0.919,-0.9168,-0.9154,-0.9131,-0.9112,-0.9081,-0.9075,-0.9079,-0.9091,-0.9105,-0.9097,-0.9001,-0.9073,-0.9073,-0.9072,-0.9071,-0.9071,-0.9427,-0.9429,-0.9401,-0.9389,-0.937,-0.9353,-0.9352,-0.9324,-0.9313,-0.9292,-0.9267,-0.9258,-0.923,-0.9197,-0.918,-0.9172,-0.9154,-0.916,-0.9162,-0.9164,-0.9169,-0.9106,-0.9167,-0.9167,-0.9167,-0.9167,-0.9166,0,-0.9505,-0.9484,-0.9473,-0.9448,-0.9438,-0.9408,-0.9386,-0.938,-0.9372,-0.9349,-0.9335,-0.9321,-0.9306,-0.9271,-0.9253,-0.9253,-0.9238,-0.925,-0.9249,-0.9245,-0.9186,-0.9184,-0.9262,-0.9262,-0.9262,-0.9262,-0.9262,-0.9262,-0.9544,-0.9546,-0.9524,-0.9516,-0.9495,-0.9485,-0.9475,-0.9458,-0.944,-0.9425,-0.9413,-0.939,-0.9362,-0.9341,-0.9326,-0.9316,-0.9311,-0.9328,-0.9314,-0.9259,-0.925,-0.9241,-0.9239,-0.9327,-0.9328,-0.9373,-0.9374,-0.9374]},{"header":{"parameterUnit":"m.s-1","parameterCategory":1,"la1":30.2991,"la2":30.254,"lo1":-89.0895,"lo2":-89.0444,"dx":0.0017,"dy":0.0017,"nx":28,"ny":28,"refTime":"2022-11-07T03:00:00:Z","depth":0,"parameterNumber":3,"parameterNumberName":"V-component_of_WINDS"},"data":[0,0,0,0,0,0,0,0,0,0,0,0,0,0,0,0,0,0,0,0,0,0,0,0,0,0,0,0,0,0,0,0,0,0,0,0,0,0,0,0,0,0,0,0,0,0,0,0,0,0,0,0,0,0,0,0,0,0,-1.7986,-1.7987,0,-1.8065,-1.8066,-1.8067,-1.8074,-1.8073,-1.8073,-1.8072,-1.8151,-1.8154,-1.8157,0,0,0,0,0,0,0,0,0,0,0,0,0,-1.7842,-1.7844,-1.7986,-1.7987,-1.7988,-1.8065,-1.8066,-1.8067,-1.8074,-1.8073,-1.8072,-1.8071,-1.815,-1.8153,-1.8157,0,0,0,0,0,0,0,0,0,0,0,0,0,-1.7911,-1.7845,-1.7986,-1.8001,-1.8003,-1.8065,-1.8066,-1.8067,-1.8075,-1.8073,-1.8072,-1.8071,-1.8149,-1.8153,-1.8157,-1.8208,0,0,-1.817,-1.8172,0,0,0,0,0,0,0,0,-1.7907,-1.7916,-1.7998,-1.8,-1.8003,-1.8059,-1.8044,-1.8115,-1.8075,-1.8048,-1.8072,-1.807,-1.8121,-1.8128,-1.8145,-1.8212,-1.8216,-1.8171,-1.8173,-1.8175,-1.8176,0,0,0,0,0,0,0,-1.7902,-1.7913,-1.8017,-1.7999,-1.8002,-1.8004,-1.8012,-1.8057,-1.809,-1.805,-1.8051,-1.806,-1.8122,-1.8141,-1.8147,-1.8217,-1.8171,-1.8174,-1.8177,-1.8179,-1.8331,-1.8332,0,0,0,0,0,0,-1.7895,-1.7909,-1.8015,-1.802,-1.7951,-1.8007,-1.8017,-1.8042,-1.809,-1.8096,-1.8061,-1.806,-1.8134,-1.8142,-1.815,-1.8213,-1.8175,-1.8179,-1.8182,-1.8329,-1.8331,-1.8332,0,0,0,0,0,0,-1.7891,-1.7904,-1.8012,-1.7965,-1.7978,-1.8011,-1.8039,-1.8044,-1.8063,-1.8098,-1.8104,-1.8074,-1.8133,-1.8144,-1.8194,-1.8216,-1.8181,-1.8185,-1.8327,-1.833,-1.8332,-1.8341,0,0,0,0,0,0,-1.7887,-1.7903,-1.7923,-1.7965,-1.7981,-1.8055,-1.8041,-1.8047,-1.807,-1.807,-1.8112,-1.8118,-1.8133,-1.8188,-1.8198,-1.8221,-1.8188,-1.8326,-1.8328,-1.8331,-1.8338,-1.8343,-1.8346,0,0,0,0,0,-1.7882,-1.7922,-1.7924,-1.7937,-1.8007,-1.8056,-1.8065,-1.8083,-1.8072,-1.8092,-1.8115,-1.8116,-1.8212,-1.8193,-1.8205,-1.823,-1.8324,-1.8328,-1.8331,-1.8337,-1.8342,-1.8346,0,0,0,0,0,0,-1.7881,-1.7927,-1.793,-1.7985,-1.8017,-1.8058,-1.8084,-1.8088,-1.8123,-1.8121,-1.8141,-1.815,-1.82,-1.822,-1.8198,-1.8282,-1.8267,-1.8273,-1.8267,-1.8273,-1.8277,-1.8271,-1.8192,0,0,0,0,0,-1.7887,-1.7924,-1.7962,-1.8007,-1.8023,-1.805,-1.8073,-1.8084,-1.8117,-1.813,-1.8157,-1.8189,-1.8226,-1.8251,-1.8287,-1.8341,-1.8351,-1.8364,-1.8368,-1.8371,-1.8376,-1.8407,-1.8414,-1.8343,-1.8343,-1.8343,0,0,-1.7899,-1.793,-1.7952,-1.8007,-1.8033,-1.8071,-1.8062,-1.8102,-1.813,-1.8136,-1.8186,-1.8206,-1.8244,-1.8297,-1.8321,-1.8314,-1.8398,-1.8376,-1.8378,-1.8381,-1.8411,-1.8418,-1.8424,-1.8345,-1.8345,-1.8345,0,0,-1.7942,-1.7969,-1.8009,-1.8035,-1.8075,-1.8093,-1.8103,-1.8143,-1.8158,-1.8208,-1.8214,-1.8247,-1.8311,-1.8338,-1.8359,-1.8413,-1.8415,-1.8424,-1.8445,-1.8475,-1.848,-1.8485,-1.8505,-1.8512,-1.8429,-1.8429,-1.8429,0,-1.7953,-1.801,-1.8029,-1.8069,-1.8093,-1.8102,-1.8143,-1.8167,-1.8216,-1.8233,-1.8225,-1.8306,-1.8332,-1.8391,-1.8404,-1.8421,-1.8433,-1.8419,-1.8478,-1.8483,-1.8488,-1.8507,-1.8514,-1.843,-1.843,-1.8429,-1.8429,0,-1.8021,-1.8061,-1.8089,-1.8137,-1.8164,-1.8205,-1.8229,-1.8255,-1.8263,-1.8282,-1.8334,-1.8365,-1.8408,-1.8423,-1.8431,-1.8484,-1.8479,-1.8474,-1.8459,-1.8496,-1.8514,-1.8521,-1.8431,-1.8431,-1.843,-1.843,0,0,-1.8065,-1.8123,-1.8133,-1.8156,-1.82,-1.8231,-1.8272,-1.8315,-1.8336,-1.837,-1.8405,-1.8459,-1.8456,-1.8481,-1.8492,-1.8518,-1.8559,-1.8511,-1.8512,-1.8519,-1.862,-1.8623,-1.8631,-1.8561,-1.8563,-1.8564,-1.8617,0,-1.8113,-1.8186,-1.8204,-1.8267,-1.8304,-1.8313,-1.8348,-1.8379,-1.8399,-1.8433,-1.8453,-1.8492,-1.8484,-1.8499,-1.8526,-1.8549,-1.858,-1.8545,-1.8594,-1.8595,-1.8584,-1.864,-1.8643,-1.8691,-1.8624,-1.8625,-1.8626,0,-1.8178,-1.8214,-1.828,-1.8321,-1.8337,-1.8369,-1.841,-1.8443,-1.8478,-1.849,-1.8519,-1.8528,-1.8571,-1.8554,-1.8613,-1.8589,-1.861,-1.8624,-1.8627,-1.8632,-1.8613,-1.8647,-1.8707,-1.8714,-1.8637,-1.8636,-1.8635,0,-1.8203,-1.8268,-1.8317,-1.8336,-1.8384,-1.8406,-1.8427,-1.8462,-1.8487,-1.8523,-1.8539,-1.8579,-1.8601,-1.8631,-1.8651,-1.8637,-1.8709,-1.8694,-1.872,-1.872,-1.8735,-1.8734,-1.88,-1.8748,-1.8748,-1.8748,-1.8748,0,-1.8255,-1.8295,-1.8329,-1.8359,-1.8404,-1.8425,-1.8469,-1.849,-1.8521,-1.8555,-1.8565,-1.8597,-1.8621,-1.8656,-1.8672,-1.8719,-1.8728,-1.8739,-1.8743,-1.8739,-1.8737,-1.8753,-1.875,-1.875,-1.875,-1.8749,-1.8749,0,-1.8291,-1.8315,-1.8368,-1.841,-1.8422,-1.8453,-1.8489,-1.8518,-1.8538,-1.8581,-1.8592,-1.8623,-1.8665,-1.8688,-1.874,-1.875,-1.8803,-1.8805,-1.8791,-1.8793,-1.8818,-1.8815,-1.8896,-1.8908,-1.8848,-1.8849,-1.8849,0,-1.8322,-1.8353,-1.8399,-1.8423,-1.8445,-1.8483,-1.8508,-1.853,-1.8556,-1.86,-1.8624,-1.8666,-1.8701,-1.8767,-1.8794,-1.8834,-1.8837,-1.8863,-1.8843,-1.8838,-1.8838,-1.8836,-1.884,-1.8866,-1.8867,-1.8867,-1.8868,0,-1.8375,-1.8386,-1.8423,-1.8464,-1.8494,-1.8528,-1.8561,-1.858,-1.8607,-1.8636,-1.8679,-1.8706,-1.876,-1.8802,-1.8844,-1.8866,-1.8872,-1.8874,-1.8882,-1.8878,-1.8869,-1.8874,-1.8801,-1.8872,-1.8871,-1.8871,-1.8871,-1.887,-1.841,-1.8438,-1.8475,-1.8516,-1.8543,-1.8574,-1.8604,-1.8628,-1.8664,-1.871,-1.8721,-1.8766,-1.8802,-1.8859,-1.8882,-1.8918,-1.8913,-1.8925,-1.8928,-1.8931,-1.8932,-1.8863,-1.8926,-1.8926,-1.8926,-1.8926,-1.8926,0,-1.8464,-1.8488,-1.8526,-1.8572,-1.8604,-1.8607,-1.8644,-1.8671,-1.8711,-1.8744,-1.8779,-1.8828,-1.8869,-1.89,-1.8942,-1.8965,-1.8968,-1.8975,-1.8974,-1.8979,-1.8934,-1.8923,-1.8972,-1.8972,-1.8972,-1.8972,-1.8972,-1.8972,-1.8496,-1.8544,-1.8559,-1.8622,-1.8646,-1.8691,-1.8712,-1.8741,-1.8767,-1.8823,-1.8857,-1.8877,-1.8909,-1.8954,-1.8992,-1.8999,-1.9014,-1.9021,-1.9029,-1.8987,-1.8982,-1.8977,-1.8967,-1.9024,-1.9024,-1.9071,-1.9072,-1.9072]}]]